This is the latest recevied weather packets stored in our database for station/object N7MLR. If no packets are shown the sender has not sent any weather packets the latest 10 day(s).
| Time | Temp. | Humidity | Pressure | Rain* | Wind** | Luminosity | Snow |
|---|---|---|---|---|---|---|---|
| 1778112161 | 17.78° C | 84% | 1011.8 hPa | 0 mm | - | 62 W/m² | - |
| 1778111858 | 17.78° C | 84% | 1011.8 hPa | 0 mm | - | 71 W/m² | - |
| 1778111553 | 17.78° C | 83% | 1011.6 hPa | 0 mm | - | 86 W/m² | - |
| 1778111250 | 17.78° C | 84% | 1011.6 hPa | 0 mm | - | 96 W/m² | - |
| 1778110947 | 17.78° C | 84% | 1011.5 hPa | 0 mm | - | 117 W/m² | - |
| 1778110645 | 17.78° C | 84% | 1011.4 hPa | 0 mm | - | 101 W/m² | - |
| 1778110341 | 18.33° C | 83% | 1011.4 hPa | 0 mm | - | 111 W/m² | - |
| 1778110038 | 18.33° C | 82% | 1010.9 hPa | 0 mm | - | 133 W/m² | - |
| 1778109733 | 18.33° C | 82% | 1011.2 hPa | 0 mm | - | 144 W/m² | - |
| 1778109430 | 18.33° C | 82% | 1011.2 hPa | 0 mm | - | 157 W/m² | - |
| 1778109129 | 18.33° C | 82% | 1011.3 hPa | 0 mm | - | 149 W/m² | - |
| 1778108825 | 18.33° C | 82% | 1010.9 hPa | 0 mm | - | 157 W/m² | - |
| 1778108522 | 18.89° C | 81% | 1010.9 hPa | 0 mm | - | 170 W/m² | - |
| 1778108218 | 18.89° C | 80% | 1011.1 hPa | 0 mm | - | 147 W/m² | - |
| 1778107915 | 18.89° C | 81% | 1010.8 hPa | 0 mm | - | 180 W/m² | - |
| 1778107612 | 18.89° C | 81% | 1011.1 hPa | 0 mm | - | 166 W/m² | - |
| 1778107309 | 19.44° C | 80% | 1011.2 hPa | 0 mm | - | 129 W/m² | - |
| 1778107005 | 19.44° C | 80% | 1011.1 hPa | 0 mm | - | 167 W/m² | - |
| 1778106701 | 18.89° C | 81% | 1010.9 hPa | 0 mm | - | 174 W/m² | - |
| 1778106398 | 19.44° C | 80% | 1011.2 hPa | 0 mm | - | 215 W/m² | - |
| 1778106094 | 18.89° C | 81% | 1010.6 hPa | 0 mm | - | 278 W/m² | - |
| 1778105792 | 18.89° C | 81% | 1010.9 hPa | 0 mm | - | 228 W/m² | - |
| 1778105490 | 19.44° C | 80% | 1010.8 hPa | 0 mm | - | 112 W/m² | - |
| 1778105186 | 20° C | 79% | 1010.8 hPa | 0 mm | - | 141 W/m² | - |
| 1778104881 | 20° C | 79% | 1010.5 hPa | 0 mm | - | 167 W/m² | - |
* Rain latest hour (hover to see other rain measurements)
** Current wind speed in m/s (hover to see current wind gust speed)